Regional Weather Roundup
Issued by NWS

Home | Current Version | Previous Version | Text Only | Print | Product List | Glossary Off
Versions: 1 2 3 4 5 6 7 8 9 10 11 12 13 14 15 16 17 18 19 20 21 22 23 24 25 26 27 28 29 30 31 32 33 34 35 36 37 38 39 40 41 42 43 44 45 46 47 48 49 50

352
ASUS43 KMPX 011210
RWRMN
WEATHER ROUNDUP FOR MINNESOTA
NATIONAL WEATHER SERVICE TWIN CITIES/CHANHASSEN MN
600 AM CST WED MAR 01 2017


NOTE: "FAIR" INDICATES FEW OR NO CLOUDS BELOW 12,000 FEET WITH NO
SIGNIFICANT WEATHER AND/OR OBSTRUCTIONS TO VISIBILITY. N/A MEANS
CURRENT SKY AND/OR WEATHER CONDITIONS ARE NOT AVAILABLE.

MNZ060>063-068>070-011300-
   Twin Cities Metro

CITY           SKY/WX    TMP DP  RH WIND       PRES   REMARKS
TWIN CITIES    LGT SNOW  26  23  88 N15       29.78R VSB 3/4 WCI  14
6HR MIN TEMP:  26; 6HR MAX TEMP:  32; 6HR PCP:  0.04;

ST PAUL        LGT SNOW  26  25  96 N15       29.79R VSB 3/4 WCI  14
CRYSTAL        LGT SNOW  27  21  78 N9        29.79R WCI  18
BLAINE         LGT SNOW  27  27 100 N16       29.79R WCI  14
LAKEVILLE      LGT SNOW  25  25 100 N15G23    29.76R WCI  12
EDEN PRAIRIE   LGT SNOW  27  23  85 N10       29.77R FOG     WCI  17
6HR MIN TEMP:  27; 6HR MAX TEMP:  32; 6HR PCP:  0.01;

SOUTH ST PAUL  LGT SNOW  27  25  91 N15       29.77R WCI  15
LAKE ELMO      LGT SNOW  28  25  86 N15       29.77R WCI  17
$$
MNZ001>005-007-008-013>017-022>024-027-028-011300-
   Northwest Minnesota

CITY           SKY/WX    TMP DP  RH WIND       PRES   REMARKS
BEMIDJI        CLOUDY    13   7  78 NW5       29.88R WCI   5
HALLOCK        CLOUDY     9   3  78 N9        29.97S WCI  -5
ROSEAU         CLOUDY    10   5  79 N5        29.94R WCI   2
WARROAD        CLOUDY    10   3  72 N3        29.94R
THIEF RVR FALL CLOUDY    11   5  77 NW6       29.94  WCI   1
CROOKSTON      CLOUDY     9   5  85 N8        29.97R WCI  -4
FOSSTON        CLOUDY    12   7  79 CALM      29.91R
DETROIT LAKES  CLOUDY    21  19  93 NW9       29.90R WCI  11
MOORHEAD       CLOUDY    16  10  79 NW10      29.95R WCI   3
PARK RAPIDS    CLOUDY    20  11  68 NW5       29.85R WCI  13
MAHNOMEN       PTSUNNY   18  13  80 N6        29.90R WCI  10
$$
MNZ006-009>011-018-025>026-011300-
   North Central Minnesota

CITY           SKY/WX    TMP DP  RH WIND       PRES   REMARKS
BAUDETTE       MOCLDY     6   0  76 CALM      29.91S
FLAG ISLAND    CLOUDY    10   1  67 NE3       29.94R
INTL FALLS     CLOUDY     9   0  67 NE6       29.91R WCI  -1
6HR MIN TEMP:   9; 6HR MAX TEMP:  15;

WASKISH        CLOUDY    10   5  79 NE3       29.90S
BIG FORK       CLOUDY    12   7  79 CALM      29.87R
LONGVILLE      MOCLDY    21  14  73 CALM      29.85R
GRAND RAPIDS   CLOUDY    16   6  65 N5        29.87R WCI   9
CRANE LAKE     CLOUDY     9   0  66 CALM      29.92R
ORR            PTCLDY    10   0  61 CALM      29.85R
COOK           MOCLDY    10   3  72 CALM      29.87R
WALKER         PTSUNNY   17  10  75 NW5       29.86R WCI  10
$$
MNZ012-019>021-037-011300-
   Northeast Minnesota

CITY           SKY/WX    TMP DP  RH WIND       PRES   REMARKS
DULUTH         CLOUDY    19  12  74 N8        29.81R WCI   9
6HR MIN TEMP:  19; 6HR MAX TEMP:  25;

ELY            PTCLDY     9   1  72 N3        29.85R
HIBBING        CLOUDY    14   4  64 N7        29.84R WCI   4
EVELETH        CLOUDY    15   2  58 NE7       29.85R WCI   5
DULUTH HARBOR  CLOUDY    25  19  80 NE17      29.86R WCI  11
TWO HARBORS    CLOUDY    19  10  68 N3        29.82R
SILVER BAY     CLOUDY    16   7  67 N3        29.82R
GRAND MARAIS     N/A     15   0  51 VRB7      29.87S WCI   5
G MARAIS ARPRT CLOUDY     7  -6  56 N15G21    29.78R WCI -11
$$
MNZ029>031-032-039>041-046>048-054>057-064-011300-
   West Central Minnesota

CITY           SKY/WX    TMP DP  RH WIND       PRES   REMARKS
FERGUS FALLS   PTCLDY    19  19 100 NW14      29.95R WCI   6
WHEATON        PTCLDY    19  16  86 W7        29.95R WCI  10
MORRIS         MOCLDY    21  19  93 NW14      29.89R WCI   8
ALEXANDRIA     CLOUDY    24  19  81 N7        29.85S WCI  16
ELBOW LAKE     FAIR      21  20  96 W8        29.89R WCI  11
WADENA         CLOUDY    19  16  86 NW6       29.86R WCI  11
GLENWOOD       CLOUDY    25  21  86 N8        29.85R WCI  16
APPLETON       CLOUDY    25  21  86 NW16      29.89R WCI  12
BENSON         CLOUDY    28  21  74 N13       29.88R WCI  18
ORTONVILLE     CLOUDY    21  16  79 NW10      29.91R WCI  10
MADISON        CLOUDY    27  21  80 NW14      29.90R WCI  15
WILLMAR        CLOUDY    30  28  93 NW13      29.85R WCI  20
$$
MNZ033>034-036-042>043-049>051-058-059-011300-
   Central Minnesota

CITY           SKY/WX    TMP DP  RH WIND       PRES   REMARKS
ST CLOUD       CLOUDY    28  24  85 N10       29.81R WCI  19
6HR MIN TEMP:  28; 6HR MAX TEMP:  30;

SAUK CENTRE    CLOUDY    27  23  84 NW10      29.84R WCI  17
PAYNESVILLE    CLOUDY    29  28  93 N8        29.84R WCI  21
AITKIN         CLOUDY    25  12  58 N8        29.83R WCI  16
PINE RIVER     CLOUDY    23  18  80 NW7       29.88R WCI  15
BRAINERD       CLOUDY    26  20  77 N7        29.84R WCI  18
STAPLES        CLOUDY    23  19  86 NW6       29.85R WCI  16
LONG PRAIRIE   CLOUDY    27  21  80 W7        29.85R WCI  19
LITTLE FALLS   CLOUDY    28  23  80 CALM      29.84R
LITCHFIELD     CLOUDY    30  27  86 N12       29.82R WCI  21
BUFFALO        CLOUDY    28  24  85 N12       29.81R WCI  18
MAPLE LAKE     CLOUDY    30  27  90 N12       29.82R WCI  20
HUTCHINSON     CLOUDY    31  28  89 NW16      29.81R WCI  20
$$
MNZ037-044-045-052-053-011300-
   East Central Minnesota

CITY           SKY/WX    TMP DP  RH WIND       PRES   REMARKS
PRINCETON      CLOUDY    28  23  80 N8        29.81S WCI  20
MORA           CLOUDY    25  21  86 N7        29.83R WCI  17
CAMBRIDGE      CLOUDY    28  19  69 N8G16     29.79S WCI  20
RUSH CITY      CLOUDY    25  21  85 N12G18    29.81R WCI  14
MOOSE LAKE     CLOUDY    25  19  80 N6        29.81R WCI  18
HINCKLEY       CLOUDY    27  21  80 N12       29.81S WCI  16
CLOQUET        CLOUDY    19  14  79 N7        29.82R WCI  10
MCGREGOR       MOCLDY    21  14  73 N5        29.84R WCI  15
$$
MNZ071>073-080-081-089-090-097-098-011300-
   Southwest Minnesota

CITY           SKY/WX    TMP DP  RH WIND       PRES   REMARKS
MONTEVIDEO     CLOUDY    25  25 100 N14       29.89R WCI  13
GRANITE FALLS  CLOUDY    30  27  90 NW16      29.87R WCI  18
CANBY          CLOUDY    25  22  89 W13       29.90R WCI  13
MARSHALL       CLOUDY    24  22  91 NW15      29.87R WCI  11
REDWOOD FALLS  CLOUDY    32  26  78 NW8       29.83R WCI  25
OLIVIA         CLOUDY    32  28  86 N12       29.83R WCI  23
PIPESTONE      LGT SNOW  27  21  80 N13       29.85R WCI  16
WINDOM         MOCLDY    30  28  93 NW17G23   29.80R WCI  18
WORTHINGTON    CLOUDY    27  25  92 NW16      29.83R WCI  15
JACKSON        CLOUDY    30  28  93 N16G24    29.79R WCI  19
TRACY          CLOUDY    27  25  94 NW15      29.85R WCI  15
SLAYTON        CLOUDY    25  24  95 NW13      29.83R WCI  13
$$
MNZ065>067-074>077-082>085-091>093-011300-
   South Central Minnesota

CITY           SKY/WX    TMP DP  RH WIND       PRES   REMARKS
MANKATO        LGT SNOW  27  25  92 N20       29.78R FOG     WCI  13
NEW ULM        CLOUDY    30  25  80 N7        29.79R WCI  23
ST JAMES       CLOUDY    30  27  86 NW13      29.80R WCI  20
FAIRMONT       FLURRIES  29  27  92 N22       29.78R WCI  15
GLENCOE        CLOUDY    31  28  90 N12       29.79R WCI  22
FARIBAULT      LGT SNOW  27  27 100 NW10G16   29.75R WCI  17
WASECA         LGT SNOW  28  27  93 N18       29.76R WCI  16
ALBERT LEA     LGT SNOW  28  28 100 NW13G18   29.71R WCI  18
$$
MNZ078>079-086>088-094>096-011300-
   Southeast Minnesota

CITY           SKY/WX    TMP DP  RH WIND       PRES   REMARKS
ROCHESTER      LGT SNOW  28  27  96 NW21      29.67R VSB 1   WCI  15
6HR MIN TEMP:  28; 6HR MAX TEMP:  33; 6HR PCP:  0.09;

RED WING       LGT SNOW  28  25  86 N12G18    29.72R WCI  18
STANTON        LGT SNOW  28  25  89 N16G22    29.74R WCI  16
WINONA         LGT SNOW  32  32 100 NW9       29.66R WCI  24
AUSTIN         LGT SNOW  28  27  93 NW17G25   29.69R WCI  16
PRESTON        LGT SNOW  30  28  94 NW10      29.65R WCI  21
$$
ABBREVIATIONS USED IN REMARKS
   TC - TEMPERATURES IN CELSIUS
  WCI - WIND CHILL INDEX
   HX - HEAT INDEX
  VSB - VISIBILITY
$$




USA.gov is the U.S. government's official web portal to all federal, state and local government web resources and services.